Regional Weather Roundup
Issued by NWS

Home | Current Version | Previous Version | Text Only | Print | Product List | Glossary On
Versions: 1 2 3 4 5 6 7 8 9 10 11 12 13 14 15 16 17 18 19 20 21 22 23 24 25 26 27 28 29 30 31 32 33 34 35 36 37 38 39 40 41 42 43 44 45 46 47 48 49 50
000
ASUS44 KJAN 021910
RWRMS

MISSISSIPPI HOURLY WEATHER ROUNDUP
NATIONAL WEATHER SERVICE JACKSON MS
200 PM CDT SUN AUG 02 2015

NOTE: "FAIR: INDICATES FEW OR NO CLOUDS BELOW 12,000 FEET WITH NO
SIGNIFICANT WEATHER AND/OR OBSTRUCTIONS TO VISIBILITY.

MSZ001>002-007>008-010>013-018>021-025>028-034>036-022000-
NORTHWEST MISSISSIPPI

CITY           SKY/WX    TMP DP  RH WIND       PRES   REMARKS
CLARKSDALE     FAIR      93  66  40 W3        29.95F HX  96
CLEVELAND      FAIR      93  68  44 NW6       29.93F HX  97
GREENWOOD      MOSUNNY   94  65  38 VRB6      29.92F HX  96
GREENVILLE     SUNNY     94  68  42 N8        29.93F HX  98
OLIVE BRANCH   MOSUNNY   93  66  40 CALM      29.95F HX  96
OXFORD         FAIR      90  64  43 NW3       29.97F HX  91
TUNICA         CLEAR     91  64  40 CALM      29.95F HX  93
$$

MSZ003>006-009-014>017-022>024-029>033-037>039-022000-
NORTHEAST MISSISSIPPI

CITY           SKY/WX    TMP DP  RH WIND       PRES   REMARKS
COLUMBUS AFB   SUNNY     92  66  41 VRB5      29.92F HX  95
CORINTH        FAIR      91  64  40 N8        29.94F HX  93
GOLDN TRIANGLE MOSUNNY   97  63  32 NW7       29.92F HX  98
STARKVILLE     FAIR      91  63  38 NE5       29.93F HX  92
TUPELO         SUNNY     93  62  35 N7        29.94F HX  93
$$

MSZ040-058-022000-
CENTRAL MISSISSIPPI

CITY           SKY/WX    TMP DP  RH WIND       PRES   REMARKS
JACKSON INTL   MOSUNNY   98  55  23 N13       29.91F HX  96
JACKSON HAWKNS SUNNY     96  54  24 VRB7      29.92F HX  94
MERIDIAN KEY   SUNNY     94  56  27 NE9       29.91F HX  92
MERIDIAN NAS   SUNNY     94  58  29 E7        29.92F HX  93
VICKSBURG      SUNNY     96  62  32 N8        29.92F HX  97
$$

MSZ059>079-022000-
SOUTH MISSISSIPPI

CITY           SKY/WX    TMP DP  RH WIND       PRES   REMARKS
BROOKHAVEN     FAIR      91  66  43 E5        29.93F HX  94
HATTIESBURG    MOSUNNY   95  66  38 E7        29.90F HX  98
MCCOMB         SUNNY     94  66  39 VRB3G17   29.91F HX  97
NATCHEZ        SUNNY     91  66  43 N9        29.92F HX  94
PINE BELT      SUNNY     93  61  33 E3        29.92F HX  93
$$

MSZ080>082-022000-
COASTAL MISSISSIPPI

CITY           SKY/WX    TMP DP  RH WIND       PRES   REMARKS
BAY ST LOUIS   MOSUNNY   91  59  33 CALM      29.89F HX  90
BILOXI         PTSUNNY   91  74  58 S7        29.88F HX 100
PASCAGOULA     MOSUNNY   94  74  52 N6        29.88F HX 104
GULFPORT       MOSUNNY   92  72  51 E9        29.87F HX  99
$$


USA.gov is the U.S. government's official web portal to all federal, state and local government web resources and services.